{"data":{"norad_id":56921,"intl_designator":"2023-083AX","name":"STARLINK-5958","alt_names":[],"object_type":"PAYLOAD","status":"ACTIVE","operator":null,"country":"US","launch_date":"2023-06-12","launch_site_code":"AFETR","launch_vehicle":null,"mission":null,"orbit_class":"UNKNOWN","rcs_meters":null,"size_class":null,"mass_kg":null,"dimensions":null,"purposes":["comms"],"wikipedia_slug":null,"has_3d_model":false,"image_url":null,"decayed_at":null,"tle_current":{"epoch":"2026-05-24T22:39:11.112768Z","epoch_age_seconds":70141,"freshness":"FRESH","line1":"1 56921U 23083AX  26144.94387862  .00001369  00000+0  59258-4 0  9994","line2":"2 56921  43.0016 359.7384 0001416 265.9973  94.0717 15.27575912163463","mean_motion":15.27575912,"eccentricity":0.0001416,"inclination_deg":43.0016,"raan_deg":359.7384,"arg_perigee_deg":265.9973,"mean_anomaly_deg":94.0717,"bstar":5.9258e-5,"rev_number":16346,"period_min":94.267000984237,"perigee_km":482.08979132508,"apogee_km":484.03288269412,"semimajor_km":6861.1983370096,"source":"CELESTRAK","updated_at":"2026-05-25T13:38:18.206212Z"}}}